Location: Asheville, NC
(35.6000°N, 82.5500°W)
Time: 13:40:34
(UTC-05:00)

Vanguard 1 - Pass Details

Date: 12 February 2018
Orbit: 650 x 3833 km, 34.2° (Epoch: 21 February)

Event Time Altitude Azimuth Distance (km) Brightness Sun altitude
Rises 20:38:23 0° 273° (W) 3,316 14.0 -30.8°
Reaches altitude 10° 20:41:02 10° 271° (W) 2,198 12.7 -31.4°
Enters shadow 20:43:54 35° 262° (W) 1,069 10.6 -31.9°
Maximum altitude 20:45:42 69° 188° (S) 689 - -32.3°
Drops below altitude 10° 20:50:13 10° 105° (ESE) 2,130 - -33.2°
Sets 20:52:45 0° 103° (ESE) 3,202 - -33.7°
